Wind_Speed
16 16 17 17 17 18 18 17 17 17 18 18 18 19 19 19 19 19 19 18 17 17 17 17 17 17 18 18 18 18 18 18 18 18 18 17 17 17 17 16 16 16 16 16
17 17 18 18 17 17 17 18 18 19 19 19 19 19 19 19 18 18 17 17 16 16 16 16 16 16 16 16 16 17 17 16 16 16 16 16 16 16 16 16 15 15 15 13
17 17 17 18 17 17 18 17 18 19 19 18 19 19 19 18 17 17 16 16 15 15 15 15 14 14 14 14 15 16 15 15 15 15 14 14 14 15 15 15 14 14 13 12
17 17 17 16 16 17 17 17 17 17 17 17 17 17 16 16 16 15 15 15 14 14 14 13 13 12 13 13 13 14 14 14 14 14 13 13 13 13 14 14 14 14 13 13
17 17 16 15 15 15 16 16 15 15 15 15 15 15 15 15 14 14 13 13 13 12 12 11 11 11 11 12 12 13 13 13 13 12 12 12 12 13 13 14 14 14 13 12
16 17 17 15 15 14 14 14 13 13 13 14 14 14 13 13 12 11 11 11 10 10 10 9 9 10 10 10 11 12 12 12 12 11 11 12 12 12 13 13 13 13 12 11
15 16 16 16 15 13 13 13 12 12 13 13 13 13 12 11 10 10 9 9 9 9 9 8 8 9 9 9 10 10 11 11 10 10 11 11 11 12 12 12 12 12 12 11
14 14 15 14 13 12 12 12 12 11 11 11 11 11 10 10 9 8 8 9 8 8 8 8 8 8 8 8 8 9 10 10 10 10 10 11 11 11 11 11 11 12 12 11
14 13 12 12 11 11 11 10 10 9 9 9 9 8 8 8 8 7 7 7 7 7 8 7 7 7 7 8 8 8 9 9 9 10 10 10 10 10 10 10 11 11 11 11
13 12 11 10 10 10 10 9 8 8 7 7 7 7 7 7 7 6 6 6 6 7 7 7 6 6 7 7 7 8 8 8 8 8 9 9 9 9 10 10 10 11 11 11
11 10 10 9 9 8 8 7 7 7 6 6 6 6 5 5 5 5 5 5 6 6 6 6 6 6 6 7 7 7 7 8 7 8 9 9 9 9 10 10 11 11 11 10
11 10 9 8 8 7 7 6 6 6 6 5 5 5 4 4 4 4 4 4 5 5 5 5 4 5 6 6 6 6 7 7 7 8 8 8 9 9 10 11 11 11 10 10
10 9 8 8 7 6 6 6 5 5 5 4 4 3 2 2 2 2 3 3 3 3 3 3 3 4 4 4 4 5 6 7 8 8 8 8 9 10 10 10 10 10 10 10
9 8 8 7 6 6 6 5 4 4 3 3 2 1 0 1 1 2 2 2 3 3 3 3 3 3 4 4 5 6 7 8 8 9 10 10 9 10 10 10 10 10 10 10
9 9 8 7 6 6 5 5 4 3 2 3 2 2 2 2 2 3 3 4 4 4 4 3 3 4 4 5 5 6 8 9 9 10 10 10 9 10 10 10 10 10 11 11
10 9 9 8 8 7 6 5 4 4 4 4 4 3 3 3 3 3 4 4 5 4 4 4 4 4 4 5 6 7 8 9 9 10 11 11 10 10 11 11 11 11 12 12
11 11 10 10 9 8 7 6 5 5 5 5 4 4 4 3 3 4 4 5 5 5 5 5 5 5 5 6 7 7 8 9 10 11 11 11 11 11 12 12 13 13 13 13
12 12 12 11 10 9 8 7 6 6 5 5 5 4 4 4 4 4 4 4 5 5 5 5 6 6 6 7 7 7 8 9 10 11 11 12 12 13 14 14 14 15 14 14
13 13 12 11 11 10 9 7 6 6 5 5 4 4 4 3 3 3 3 4 4 5 5 5 5 6 7 7 8 8 9 10 11 12 13 13 13 14 14 15 15 15 15 16
14 13 13 12 10 10 9 8 7 6 5 4 3 3 3 2 2 3 3 4 4 5 5 6 6 7 8 9 9 10 10 11 12 13 14 14 15 16 16 16 16 17 18 18
14 13 13 12 11 10 9 8 6 5 5 4 3 2 2 1 2 3 3 4 5 5 6 7 7 8 9 10 10 11 12 12 13 14 15 16 17 17 18 18 19 19 20 21
14 13 13 12 11 10 9 7 6 5 4 4 3 2 1 1 2 3 4 5 5 6 7 7 8 9 10 11 12 12 13 14 15 16 16 17 18 19 20 20 21 21 22 23
14 13 13 12 11 10 8 7 6 5 4 3 2 1 1 2 3 4 4 5 6 7 8 9 10 11 12 12 13 14 14 15 16 17 18 19 20 21 22 22 23 24 24 24
14 14 13 12 11 10 8 7 5 4 3 2 1 1 1 2 3 4 5 6 7 9 9 10 11 12 13 14 14 15 16 17 18 19 20 21 22 23 24 24 25 25 25 25
14 13 13 12 10 9 8 6 5 4 3 2 2 1 2 3 5 6 7 8 9 10 10 11 12 13 14 15 16 17 18 19 20 21 22 23 24 25 26 25 26 26 27 27
13 13 12 11 10 8 7 6 5 4 3 3 3 3 4 5 6 7 8 9 10 11 11 12 13 15 16 17 18 19 20 21 22 23 24 25 26 26 27 27 28 28 29 29
13 12 11 10 9 8 7 6 5 4 3 3 4 4 5 6 7 8 9 10 11 12 12 13 15 16 18 19 20 21 22 23 24 25 25 26 27 28 29 30 30 30 31 31
Wind_Direction
256 254 255 257 261 262 262 264 270 274 275 276 278 281 285 288 291 293 295 295 296 298 300 300 301 302 304 307 308 309 309 309 308 309 312 314 315 319 322 323 322 321 319 315
260 260 259 261 263 263 263 266 271 274 275 277 279 281 285 288 291 292 293 291 293 297 299 300 301 302 304 307 310 311 310 312 312 311 314 316 319 322 325 326 324 325 322 320
260 261 261 262 262 262 263 267 271 272 274 278 280 282 284 286 289 291 292 291 292 295 296 297 299 300 304 309 310 310 310 313 315 315 317 321 325 327 329 330 328 328 327 326
259 260 261 263 262 263 268 272 272 271 274 276 279 282 283 286 290 290 290 288 289 291 291 292 296 299 305 306 307 312 315 316 319 321 322 326 327 330 333 334 331 326 325 324
257 262 265 264 263 265 271 272 273 273 274 276 279 283 283 286 289 290 287 284 287 291 291 293 294 298 302 306 313 318 322 322 323 323 326 326 328 332 333 333 334 336 333 331
258 263 265 264 262 268 273 273 273 274 276 277 279 283 284 285 286 287 286 288 293 300 299 296 297 298 301 306 313 319 323 325 330 332 330 330 331 337 339 339 340 340 340 337
259 263 264 263 263 267 268 271 276 279 279 278 278 280 283 284 284 283 286 291 295 298 301 301 302 303 306 308 311 317 322 326 330 336 337 335 335 339 341 342 344 344 345 346
258 261 262 264 267 265 265 273 278 279 277 277 277 278 278 282 282 281 285 292 297 300 303 306 308 308 311 311 314 318 323 328 332 335 337 337 336 340 344 344 343 346 348 350
253 256 259 260 261 259 261 269 274 274 272 270 273 276 275 277 279 282 286 292 297 301 306 309 311 308 311 318 321 326 330 331 331 335 338 340 342 346 348 348 350 352 353 353
251 248 252 254 253 256 255 260 266 268 265 265 270 275 274 276 278 284 290 294 299 306 306 306 308 307 316 323 327 328 332 335 336 337 342 346 350 354 356 355 357 356 354 355
243 243 245 246 248 251 254 253 257 259 260 263 269 275 280 281 285 290 293 295 299 303 305 304 304 304 310 316 323 330 337 338 341 343 349 353 355 355 357 357 354 354 356 358
236 235 236 238 241 240 238 240 242 245 250 258 265 270 280 290 298 300 299 303 306 309 310 309 314 314 313 315 322 330 338 348 352 350 351 353 353 353 352 353 352 352 354 356
232 231 229 228 226 226 227 232 233 234 242 251 256 263 279 302 326 317 320 329 330 331 332 332 337 337 331 332 337 343 348 352 355 356 354 352 350 350 350 351 349 350 351 351
226 222 216 213 208 209 214 218 220 223 224 225 231 233 278 7 14 13 10 12 7 2 1 3 6 4 359 353 351 352 352 352 354 354 351 349 349 349 347 346 345 345 346 344
215 209 202 196 190 187 188 193 196 192 178 168 152 127 105 82 61 47 41 31 27 28 26 21 20 15 12 4 355 351 350 351 351 352 351 349 346 344 344 343 345 346 343 343
202 198 191 186 180 176 173 171 166 154 149 146 139 128 108 90 75 67 55 43 38 35 31 28 27 22 13 2 355 355 355 355 354 353 353 352 348 343 342 342 341 338 336 335
193 188 185 181 179 177 174 168 156 144 138 139 135 127 114 98 85 74 60 51 45 41 32 26 23 16 8 2 360 1 1 1 359 357 357 355 352 346 341 337 335 333 331 328
188 185 182 179 176 175 171 163 154 142 129 130 132 125 113 102 91 79 64 49 39 32 23 19 17 14 7 1 0 2 2 2 360 357 355 353 350 345 340 336 333 331 330 327
183 179 175 174 173 171 167 162 157 149 139 131 127 121 107 95 80 66 50 35 26 23 18 17 15 10 5 4 1 358 356 354 353 350 349 347 345 343 340 337 335 333 331 328
178 175 172 171 170 167 164 161 156 154 147 136 134 125 105 83 56 42 34 26 19 14 8 6 3 359 355 353 351 350 347 345 343 342 341 340 339 338 337 335 332 330 328 326
178 175 172 173 173 171 167 164 162 159 152 145 139 129 105 64 32 21 13 8 6 1 355 354 353 351 349 347 345 344 342 339 338 337 336 335 334 334 333 332 331 329 327 326
177 174 172 171 172 172 171 169 166 165 163 158 149 138 104 27 12 4 358 353 351 349 348 349 348 346 343 342 341 339 338 337 337 336 335 334 333 332 331 330 328 326 325 324
175 172 170 171 172 172 172 172 171 169 170 171 165 143 360 347 344 345 345 343 344 345 345 344 342 341 339 339 338 338 337 336 335 334 333 332 331 330 330 328 327 326 325 324
172 170 171 172 175 177 178 179 178 174 178 189 205 264 316 330 334 336 337 338 339 341 342 341 338 337 336 336 336 336 335 334 333 332 331 331 330 330 329 328 328 327 325 324
170 172 174 176 178 180 183 186 189 194 207 220 237 274 305 319 323 327 330 331 333 336 337 336 336 336 335 335 334 334 332 331 330 330 330 330 329 329 328 327 327 326 324 323
174 176 177 179 181 185 189 195 201 210 223 237 259 288 307 315 317 322 325 327 329 331 332 333 333 333 333 333 332 331 330 330 329 329 329 329 328 327 326 325 324 323 323 322
179 181 183 185 189 193 197 199 202 209 228 257 280 296 307 312 315 321 324 326 328 329 329 330 331 331 331 331 330 330 329 329 329 329 330 329 328 327 326 325 323 323 323 322
Height
5805 5806 5807 5807 5808 5808 5808 5808 5808 5808 5808 5807 5806 5805 5804 5803 5802 5800 5798 5796 5794 5792 5790 5788 5786 5784 5782 5779 5777 5774 5771 5768 5765 5762 5759 5756 5752 5749 5746 5742 5739 5736 5733 5729
5801 5801 5802 5802 5803 5803 5803 5803 5803 5803 5802 5801 5800 5800 5799 5798 5796 5795 5793 5791 5790 5787 5786 5783 5781 5779 5778 5776 5773 5770 5768 5765 5762 5759 5756 5753 5749 5746 5743 5739 5736 5733 5730 5727
5796 5797 5797 5798 5799 5799 5799 5799 5799 5798 5798 5796 5795 5794 5793 5792 5791 5790 5788 5786 5785 5783 5781 5779 5777 5776 5774 5772 5770 5767 5764 5761 5758 5755 5753 5750 5747 5744 5741 5737 5734 5731 5728 5725
5791 5793 5793 5795 5794 5794 5794 5794 5793 5793 5792 5791 5790 5789 5788 5787 5786 5784 5783 5782 5780 5779 5777 5776 5774 5772 5771 5769 5767 5764 5761 5758 5756 5753 5750 5748 5745 5742 5739 5736 5732 5729 5726 5723
5787 5787 5788 5790 5790 5790 5790 5789 5789 5788 5787 5786 5785 5784 5783 5782 5781 5780 5779 5778 5776 5775 5773 5772 5771 5769 5768 5766 5764 5762 5759 5756 5753 5751 5748 5746 5743 5740 5737 5734 5731 5728 5724 5721
5783 5783 5783 5786 5786 5785 5786 5785 5785 5783 5783 5782 5781 5780 5780 5778 5777 5776 5775 5774 5773 5772 5770 5769 5768 5766 5765 5763 5762 5759 5757 5754 5751 5749 5746 5744 5741 5738 5736 5733 5730 5727 5723 5720
5778 5778 5779 5780 5780 5781 5782 5782 5780 5779 5778 5777 5777 5776 5775 5774 5773 5772 5772 5771 5770 5769 5768 5766 5765 5764 5762 5761 5759 5757 5755 5752 5750 5747 5745 5742 5740 5737 5734 5731 5729 5726 5723 5719
5774 5774 5777 5776 5776 5777 5778 5777 5776 5775 5774 5773 5772 5772 5771 5770 5769 5769 5769 5768 5767 5766 5765 5764 5763 5761 5760 5759 5757 5755 5753 5750 5748 5746 5744 5741 5739 5736 5733 5730 5728 5725 5722 5719
5770 5772 5771 5771 5772 5772 5772 5772 5772 5771 5770 5770 5769 5768 5768 5767 5767 5766 5766 5765 5765 5764 5763 5762 5760 5759 5758 5757 5755 5753 5751 5749 5747 5745 5743 5740 5738 5735 5732 5730 5727 5724 5722 5719
5765 5766 5767 5767 5767 5768 5768 5769 5768 5768 5767 5767 5766 5766 5765 5765 5764 5764 5763 5763 5762 5761 5760 5760 5758 5757 5756 5755 5753 5752 5750 5748 5745 5743 5741 5739 5737 5734 5732 5729 5727 5724 5722 5719
5761 5763 5763 5764 5764 5765 5765 5765 5765 5765 5765 5764 5764 5764 5763 5763 5762 5761 5761 5761 5760 5759 5758 5757 5756 5755 5754 5753 5752 5750 5748 5746 5744 5742 5740 5738 5736 5734 5732 5729 5727 5724 5722 5719
5758 5759 5760 5761 5761 5762 5762 5763 5763 5763 5763 5763 5762 5762 5761 5761 5760 5760 5759 5759 5758 5757 5756 5755 5755 5754 5753 5751 5750 5749 5747 5745 5743 5741 5740 5738 5736 5734 5732 5729 5727 5724 5722 5719
5755 5756 5756 5758 5758 5759 5760 5760 5760 5761 5761 5761 5761 5761 5760 5760 5759 5759 5758 5757 5757 5756 5755 5754 5753 5753 5752 5751 5749 5748 5746 5745 5743 5741 5739 5737 5735 5733 5731 5729 5727 5724 5722 5719
5752 5753 5754 5755 5756 5757 5758 5758 5759 5759 5759 5760 5760 5760 5759 5759 5759 5758 5757 5757 5756 5755 5754 5754 5753 5752 5751 5750 5749 5748 5746 5744 5743 5741 5739 5737 5735 5733 5730 5728 5726 5724 5722 5719
5750 5751 5752 5753 5755 5756 5757 5757 5758 5758 5759 5759 5759 5759 5759 5759 5759 5758 5757 5757 5756 5755 5754 5754 5753 5752 5751 5750 5749 5747 5746 5744 5742 5740 5738 5736 5734 5732 5730 5727 5725 5722 5720 5718
5748 5749 5751 5752 5754 5755 5756 5757 5757 5758 5758 5759 5759 5759 5759 5759 5759 5759 5758 5757 5756 5756 5755 5754 5753 5752 5751 5750 5749 5747 5746 5744 5742 5740 5738 5735 5733 5731 5729 5727 5724 5722 5719 5717
5746 5748 5750 5752 5753 5755 5756 5757 5758 5758 5759 5759 5759 5760 5760 5760 5759 5759 5759 5758 5757 5756 5755 5754 5753 5752 5751 5750 5748 5747 5746 5744 5742 5739 5737 5735 5732 5730 5728 5725 5723 5720 5718 5715
5745 5747 5749 5751 5753 5754 5756 5757 5758 5759 5759 5760 5760 5760 5760 5760 5760 5760 5759 5759 5758 5757 5756 5755 5754 5752 5751 5750 5748 5747 5745 5743 5741 5739 5737 5734 5731 5729 5726 5723 5721 5718 5715 5713
5744 5746 5748 5751 5752 5754 5756 5757 5758 5759 5760 5761 5761 5761 5761 5761 5761 5761 5760 5759 5758 5758 5757 5755 5754 5753 5751 5750 5748 5746 5745 5743 5740 5738 5736 5733 5730 5727 5724 5722 5718 5715 5713 5710
5743 5746 5748 5750 5752 5754 5756 5758 5759 5760 5761 5761 5762 5762 5762 5762 5762 5761 5760 5760 5759 5758 5757 5755 5754 5752 5751 5749 5747 5746 5744 5741 5739 5737 5734 5731 5728 5725 5722 5719 5716 5713 5709 5706
5743 5746 5748 5750 5753 5755 5756 5758 5759 5760 5761 5762 5762 5762 5763 5762 5762 5762 5761 5760 5759 5758 5756 5755 5753 5752 5750 5748 5746 5744 5742 5740 5737 5735 5732 5729 5726 5723 5719 5716 5713 5709 5706 5702
5743 5745 5748 5750 5753 5755 5756 5758 5759 5760 5761 5762 5762 5763 5763 5763 5762 5762 5761 5760 5759 5757 5756 5754 5753 5751 5749 5747 5745 5743 5741 5738 5735 5732 5729 5726 5723 5719 5716 5712 5709 5705 5701 5697
5742 5745 5748 5750 5753 5755 5757 5758 5759 5760 5761 5762 5762 5763 5763 5763 5762 5761 5761 5760 5758 5757 5755 5754 5752 5750 5748 5746 5744 5741 5739 5736 5733 5730 5726 5723 5719 5716 5712 5708 5704 5700 5696 5692
5742 5745 5748 5750 5753 5755 5757 5758 5759 5760 5761 5762 5762 5762 5762 5762 5761 5761 5760 5759 5758 5756 5755 5753 5751 5749 5746 5744 5741 5739 5736 5733 5730 5727 5723 5719 5716 5712 5707 5703 5699 5695 5691 5686
5743 5746 5748 5751 5753 5755 5756 5758 5759 5760 5761 5761 5761 5761 5761 5761 5761 5760 5759 5758 5756 5755 5753 5751 5749 5747 5744 5742 5739 5736 5733 5730 5727 5723 5719 5715 5711 5707 5703 5698 5694 5689 5685 5681
5743 5746 5748 5751 5753 5754 5756 5757 5758 5759 5760 5760 5761 5761 5760 5760 5759 5758 5757 5756 5755 5753 5751 5749 5747 5744 5742 5739 5736 5733 5730 5726 5723 5719 5715 5710 5706 5702 5697 5693 5688 5683 5679 5674
5743 5745 5748 5750 5752 5754 5755 5756 5757 5758 5759 5759 5760 5759 5759 5758 5758 5757 5756 5754 5753 5751 5749 5747 5744 5742 5739 5736 5733 5729 5726 5722 5718 5714 5710 5705 5701 5696 5691 5687 5682 5677 5672 5667